This demonstration page uses our WeatherBlox Daily Observations layout. Learn more.

Left ArrowRight Arrow

Hourly Observations for June 1, 2016

Temp ( °F °C ) Dew Point ( °F °C ) Humidity (%) Winds ( mph kmh ) Pressure ( in mb ) Visibility ( mi km ) Precip ( " mm )
12:52 am 00:52 Partly Cloudy 67 19.4 63 17.2 87 87 NNW 6 9 29.94 1014 10 16 0.00 0.00
1:52 am 01:52 Clear 66 18.9 63 17.2 90 90 S 3 6 29.91 1013 10 16 0.00 0.00
2:52 am 02:52 Mostly Cloudy 66 18.9 62 16.7 87 87 NNE 6 9 29.92 1013 10 16 0.00 0.00
3:52 am 03:52 Clear 66 18.9 62 16.7 87 87 Calm 29.92 1013 10 16 0.00 0.00
4:52 am 04:52 Clear 65 18.3 61 16.1 87 87 WSW 3 6 29.92 1013 10 16 0.00 0.00
5:52 am 05:52 Clear 65 18.3 61 16.1 87 87 Calm 29.94 1014 10 16 0.00 0.00
6:52 am 06:52 Sunny 66 18.9 61 16.1 84 84 N 3 6 29.95 1014 10 16 0.00 0.00
7:52 am 07:52 Sunny 68 20 62 16.7 81 81 Calm 29.96 1015 10 16 0.00 0.00
8:52 am 08:52 Mostly Sunny 69 20.6 62 16.7 78 78 Calm 29.98 1015 10 16 0.00 0.00
9:52 am 09:52 Mostly Cloudy 72 22.2 63 17.2 73 73 NNW 6 9 29.98 1015 10 16 0.00 0.00
10:52 am 10:52 Partly Cloudy 74 23.3 65 18.3 74 74 N 5 7 29.98 1015 10 16 0.00 0.00
11:52 am 11:52 Partly Cloudy 79 26.1 66 18.9 65 65 NE 8 13 29.98 1015 10 16 0.00 0.00
12:52 pm 12:52 Cloudy 79 26.1 63 17.2 58 58 Calm 29.98 1015 10 16 0.00 0.00
1:52 pm 13:52 Partly Cloudy 80 26.7 62 16.7 54 54 NNW 5 7 29.96 1015 10 16 0.00 0.00
2:10 pm 14:10 Mostly Cloudy with Nearby Thunderstorms 81 27 63 17 54 54 N 7 11 29.94 1014 10 16 0.00 0.00
2:39 pm 14:39 Mostly Cloudy 77 25 63 17.2 62 62 NNW 13 20 29.91 1013 10 16 0.00 0.03
2:52 pm 14:52 Cloudy with Light Rain 77 25 63 17.2 62 62 VRB 5 7 29.96 1015 8 13 0.00 0.03
3:07 pm 15:07 Cloudy with Thunderstorms 71 21.7 65 18.3 81 81 VRB 6 9 29.97 1015 6 10 0.05 1.27
3:17 pm 15:17 Cloudy with Thunderstorms 70 21.1 65 18.3 84 84 SSE 6 9 29.97 1015 6 10 0.05 1.27
3:21 pm 15:21 Cloudy with Nearby Thunderstorms 70 21.1 65 18.3 84 84 S 3 6 29.97 1015 7 11 0.06 1.52
3:36 pm 15:36 Cloudy with Light Rain 71 21.7 65 18.3 81 81 Calm 29.94 1014 10 16 0.06 1.52
3:49 pm 15:49 Cloudy with Nearby Thunderstorms 72 22 66 19 83 83 ESE 3 6 29.94 1014 6 10 0.06 1.52
3:52 pm 15:52 Cloudy with Nearby Thunderstorms 72 22.2 66 18.9 82 82 SE 5 7 29.95 1014 6 10 0.08 2.03
4:04 pm 16:04 Cloudy with Light Rain 73 23 66 19 78 78 NE 3 6 29.91 1013 10 16 0.00 0.00
4:52 pm 16:52 Partly Cloudy 75 23.9 66 18.9 74 74 SSE 3 6 29.94 1014 10 16 0.01 0.25
5:52 pm 17:52 Mostly Sunny 76 24.4 65 18.3 69 69 E 3 6 29.94 1014 10 16 0.00 0.00
6:52 pm 18:52 Mostly Cloudy 75 24 64 18 69 69 SSW 5 7 29.83 1010 10 16 0.00 0.00
7:52 pm 19:52 Mostly Cloudy 75 23.9 66 18.9 74 74 Calm 29.97 1015 10 16 0.00 0.00
8:52 pm 20:52 Mostly Clear 70 21.1 65 18.3 84 84 SSE 6 9 29.98 1015 10 16 0.00 0.00
9:52 pm 21:52 Clear 68 20 65 18.3 90 90 Calm 29.99 1016 10 16 0.00 0.00
10:52 pm 22:52 Clear 69 20.6 65 18.3 87 87 Calm 30.00 1016 10 16 0.00 0.00
11:52 pm 23:52 Clear 67 19.4 63 17.2 87 87 SE 5 7 29.99 1016 10 16 0.00 0.00

Powered by AerisWeather